Time,TemperatureF,DewpointF,PressureIn,WindDirection,WindDirectionDegrees,WindSpeedMPH,WindSpeedGustMPH,Humidity,HourlyPrecipIn,Conditions,Clouds,dailyrainin,SoftwareType,DateUTC
2013-03-12 00:02:00,22.0,20.0,30.12,North,-999,-999.0,-999.0,92,-99.99,,,-99.99,,2013-03-12 06:02:00,
2013-03-12 00:12:00,20.0,17.0,30.12,North,-999,-999.0,-999.0,91,-99.99,,,-99.99,,2013-03-12 06:12:00,
2013-03-12 00:22:00,20.0,17.0,30.12,North,-999,-999.0,-999.0,91,-99.99,,,-99.99,,2013-03-12 06:22:00,
2013-03-12 00:32:00,20.0,17.0,30.12,North,-999,-999.0,-999.0,91,-99.99,,,-99.99,,2013-03-12 06:32:00,
2013-03-12 00:42:00,17.0,14.0,30.13,North,-999,-999.0,-999.0,90,-99.99,,,-99.99,,2013-03-12 06:42:00,
2013-03-12 00:52:00,17.0,14.0,30.13,North,-999,-999.0,-999.0,90,-99.99,,,-99.99,,2013-03-12 06:52:00,
2013-03-12 01:02:00,17.0,14.0,30.13,North,-999,-999.0,-999.0,90,-99.99,,,-99.99,,2013-03-12 07:02:00,
2013-03-12 01:12:00,17.0,14.0,30.13,North,-999,-999.0,-999.0,90,-99.99,,,-99.99,,2013-03-12 07:12:00,
2013-03-12 01:22:00,15.0,13.0,30.14,North,-999,-999.0,-999.0,90,-99.99,,,-99.99,,2013-03-12 07:22:00,
2013-03-12 01:32:00,15.0,13.0,30.14,North,-999,-999.0,-999.0,90,-99.99,,,-99.99,,2013-03-12 07:32:00,
2013-03-12 01:42:00,17.0,15.0,30.14,North,-999,-999.0,-999.0,91,-99.99,,,-99.99,,2013-03-12 07:42:00,
2013-03-12 01:52:00,17.0,15.0,30.14,North,-999,-999.0,-999.0,91,-99.99,,,-99.99,,2013-03-12 07:52:00,
2013-03-12 02:02:00,17.0,15.0,30.14,North,-999,-999.0,-999.0,91,-99.99,,,-99.99,,2013-03-12 08:02:00,
2013-03-12 02:13:00,17.0,15.0,30.14,North,-999,-999.0,-999.0,91,-99.99,,,-99.99,,2013-03-12 08:13:00,
2013-03-12 02:22:00,16.0,14.0,30.14,North,-999,-999.0,-999.0,90,-99.99,,,-99.99,,2013-03-12 08:22:00,
2013-03-12 02:33:00,16.0,14.0,30.14,North,-999,-999.0,-999.0,90,-99.99,,,-99.99,,2013-03-12 08:33:00,
2013-03-12 02:42:00,16.0,14.0,30.15,North,-999,-999.0,-999.0,90,-99.99,,,-99.99,,2013-03-12 08:42:00,
2013-03-12 02:52:00,16.0,14.0,30.15,North,-999,-999.0,-999.0,90,-99.99,,,-99.99,,2013-03-12 08:52:00,
2013-03-12 03:03:00,16.0,14.0,30.15,North,-999,-999.0,-999.0,90,-99.99,,,-99.99,,2013-03-12 09:03:00,
2013-03-12 03:12:00,16.0,13.0,30.15,North,-999,-999.0,-999.0,90,-99.99,,,-99.99,,2013-03-12 09:12:00,
2013-03-12 03:22:00,16.0,13.0,30.15,North,-999,-999.0,-999.0,90,-99.99,,,-99.99,,2013-03-12 09:22:00,
2013-03-12 03:32:00,16.0,13.0,30.15,North,-999,-999.0,-999.0,90,-99.99,,,-99.99,,2013-03-12 09:32:00,
2013-03-12 03:42:00,16.0,13.0,30.15,North,-999,-999.0,-999.0,90,-99.99,,,-99.99,,2013-03-12 09:42:00,
2013-03-12 03:52:00,17.0,15.0,30.15,North,-999,-999.0,-999.0,90,-99.99,,,-99.99,,2013-03-12 09:52:00,
2013-03-12 04:02:00,17.0,15.0,30.15,North,-999,-999.0,-999.0,90,-99.99,,,-99.99,,2013-03-12 10:02:00,
2013-03-12 04:12:00,17.0,15.0,30.15,North,-999,-999.0,-999.0,90,-99.99,,,-99.99,,2013-03-12 10:12:00,
2013-03-12 04:22:00,18.0,15.0,30.15,North,-999,-999.0,-999.0,90,-99.99,,,-99.99,,2013-03-12 10:22:00,
2013-03-12 04:32:00,18.0,15.0,30.15,North,-999,-999.0,-999.0,90,-99.99,,,-99.99,,2013-03-12 10:32:00,
2013-03-12 04:42:00,18.0,15.0,30.15,North,-999,-999.0,-999.0,90,-99.99,,,-99.99,,2013-03-12 10:42:00,
2013-03-12 04:52:00,18.0,15.0,30.15,North,-999,-999.0,-999.0,90,-99.99,,,-99.99,,2013-03-12 10:52:00,
2013-03-12 05:02:00,18.0,15.0,30.15,North,-999,-999.0,-999.0,90,-99.99,,,-99.99,,2013-03-12 11:02:00,
2013-03-12 05:12:00,18.0,15.0,30.15,North,-999,-999.0,-999.0,90,-99.99,,,-99.99,,2013-03-12 11:12:00,
2013-03-12 05:22:00,15.0,13.0,30.16,North,-999,-999.0,-999.0,89,-99.99,,,-99.99,,2013-03-12 11:22:00,
2013-03-12 05:32:00,15.0,13.0,30.16,North,-999,-999.0,-999.0,89,-99.99,,,-99.99,,2013-03-12 11:32:00,
2013-03-12 05:42:00,16.0,13.0,30.17,North,-999,-999.0,-999.0,90,-99.99,,,-99.99,,2013-03-12 11:42:00,
2013-03-12 05:52:00,16.0,13.0,30.17,North,-999,-999.0,-999.0,90,-99.99,,,-99.99,,2013-03-12 11:52:00,
2013-03-12 06:02:00,16.0,13.0,30.17,North,-999,-999.0,-999.0,90,-99.99,,,-99.99,,2013-03-12 12:02:00,
2013-03-12 06:12:00,16.0,13.0,30.17,North,-999,-999.0,-999.0,90,-99.99,,,-99.99,,2013-03-12 12:12:00,
2013-03-12 06:22:00,16.0,13.0,30.17,North,-999,-999.0,-999.0,90,-99.99,,,-99.99,,2013-03-12 12:22:00,
2013-03-12 06:32:00,16.0,13.0,30.17,North,-999,-999.0,-999.0,90,-99.99,,,-99.99,,2013-03-12 12:32:00,
2013-03-12 06:42:00,16.0,13.0,30.18,North,-999,-999.0,-999.0,89,-99.99,,,-99.99,,2013-03-12 12:42:00,
2013-03-12 06:52:00,16.0,13.0,30.18,North,-999,-999.0,-999.0,89,-99.99,,,-99.99,,2013-03-12 12:52:00,
2013-03-12 07:02:00,16.0,13.0,30.18,North,-999,-999.0,-999.0,89,-99.99,,,-99.99,,2013-03-12 13:02:00,
2013-03-12 07:12:00,16.0,13.0,30.18,North,-999,-999.0,-999.0,89,-99.99,,,-99.99,,2013-03-12 13:12:00,
2013-03-12 07:22:00,15.0,12.0,30.18,North,-999,-999.0,-999.0,89,-99.99,,,-99.99,,2013-03-12 13:22:00,
2013-03-12 07:32:00,15.0,12.0,30.18,North,-999,-999.0,-999.0,89,-99.99,,,-99.99,,2013-03-12 13:32:00,
2013-03-12 07:42:00,15.0,12.0,30.20,North,-999,-999.0,-999.0,90,-99.99,,,-99.99,,2013-03-12 13:42:00,
2013-03-12 07:52:00,15.0,12.0,30.20,North,-999,-999.0,-999.0,90,-99.99,,,-99.99,,2013-03-12 13:52:00,
2013-03-12 08:02:00,15.0,12.0,30.20,North,-999,-999.0,-999.0,90,-99.99,,,-99.99,,2013-03-12 14:02:00,
2013-03-12 08:12:00,15.0,12.0,30.20,North,-999,-999.0,-999.0,90,-99.99,,,-99.99,,2013-03-12 14:12:00,
2013-03-12 08:22:00,16.0,13.0,30.20,North,-999,-999.0,-999.0,90,-99.99,,,-99.99,,2013-03-12 14:22:00,
2013-03-12 08:33:00,16.0,13.0,30.20,North,-999,-999.0,-999.0,90,-99.99,,,-99.99,,2013-03-12 14:33:00,
2013-03-12 08:42:00,18.0,15.0,30.21,North,-999,-999.0,-999.0,90,-99.99,,,-99.99,,2013-03-12 14:42:00,
2013-03-12 08:52:00,18.0,15.0,30.21,North,-999,-999.0,-999.0,90,-99.99,,,-99.99,,2013-03-12 14:52:00,
2013-03-12 09:02:00,18.0,15.0,30.21,North,-999,-999.0,-999.0,90,-99.99,,,-99.99,,2013-03-12 15:02:00,
2013-03-12 09:12:00,20.0,18.0,30.21,North,-999,-999.0,-999.0,90,-99.99,,,-99.99,,2013-03-12 15:12:00,
2013-03-12 09:22:00,20.0,18.0,30.21,North,-999,-999.0,-999.0,90,-99.99,,,-99.99,,2013-03-12 15:22:00,
2013-03-12 09:32:00,20.0,18.0,30.21,North,-999,-999.0,-999.0,90,-99.99,,,-99.99,,2013-03-12 15:32:00,
2013-03-12 09:42:00,20.0,18.0,30.21,North,-999,-999.0,-999.0,90,-99.99,,,-99.99,,2013-03-12 15:42:00,
2013-03-12 09:52:00,23.0,20.0,30.23,North,-999,-999.0,-999.0,90,-99.99,,,-99.99,,2013-03-12 15:52:00,
2013-03-12 10:02:00,23.0,20.0,30.23,North,-999,-999.0,-999.0,90,-99.99,,,-99.99,,2013-03-12 16:02:00,
2013-03-12 10:12:00,23.0,20.0,30.23,North,-999,-999.0,-999.0,90,-99.99,,,-99.99,,2013-03-12 16:12:00,
2013-03-12 10:22:00,25.0,23.0,30.23,North,-999,-999.0,-999.0,90,-99.99,,,-99.99,,2013-03-12 16:22:00,
2013-03-12 10:32:00,25.0,23.0,30.23,North,-999,-999.0,-999.0,90,-99.99,,,-99.99,,2013-03-12 16:32:00,
2013-03-12 10:43:00,25.0,23.0,30.23,North,-999,-999.0,-999.0,90,-99.99,,,-99.99,,2013-03-12 16:43:00,
2013-03-12 10:52:00,23.0,20.0,30.23,North,-999,-999.0,-999.0,90,-99.99,,,-99.99,,2013-03-12 16:52:00,
2013-03-12 11:03:00,23.0,20.0,30.23,North,-999,-999.0,-999.0,90,-99.99,,,-99.99,,2013-03-12 17:03:00,
2013-03-12 11:13:00,23.0,20.0,30.23,North,-999,-999.0,-999.0,90,-99.99,,,-99.99,,2013-03-12 17:13:00,
2013-03-12 11:22:00,22.0,20.0,30.23,North,-999,-999.0,-999.0,91,-99.99,,,-99.99,,2013-03-12 17:22:00,
2013-03-12 11:33:00,22.0,20.0,30.23,North,-999,-999.0,-999.0,91,-99.99,,,-99.99,,2013-03-12 17:33:00,
2013-03-12 11:43:00,22.0,20.0,30.23,North,-999,-999.0,-999.0,91,-99.99,,,-99.99,,2013-03-12 17:43:00,
2013-03-12 11:53:00,26.0,24.0,30.23,North,-999,-999.0,-999.0,91,-99.99,,,-99.99,,2013-03-12 17:53:00,
2013-03-12 12:03:00,26.0,24.0,30.23,North,-999,-999.0,-999.0,91,-99.99,,,-99.99,,2013-03-12 18:03:00,
2013-03-12 12:13:00,29.0,26.0,30.23,North,-999,-999.0,-999.0,91,-99.99,,,-99.99,,2013-03-12 18:13:00,
2013-03-12 12:23:00,29.0,26.0,30.23,North,-999,-999.0,-999.0,91,-99.99,,,-99.99,,2013-03-12 18:23:00,
2013-03-12 12:33:00,29.0,26.0,30.23,North,-999,-999.0,-999.0,91,-99.99,,,-99.99,,2013-03-12 18:33:00,
2013-03-12 12:42:00,27.0,26.0,30.21,North,-999,-999.0,-999.0,92,-99.99,,,-99.99,,2013-03-12 18:42:00,
2013-03-12 12:53:00,27.0,26.0,30.21,North,-999,-999.0,-999.0,92,-99.99,,,-99.99,,2013-03-12 18:53:00,
2013-03-12 13:03:00,27.0,26.0,30.21,North,-999,-999.0,-999.0,92,-99.99,,,-99.99,,2013-03-12 19:03:00,
2013-03-12 13:13:00,27.0,26.0,30.21,North,-999,-999.0,-999.0,92,-99.99,,,-99.99,,2013-03-12 19:13:00,
2013-03-12 13:22:00,24.0,22.0,30.21,North,-999,-999.0,-999.0,91,-99.99,,,-99.99,,2013-03-12 19:22:00,
2013-03-12 13:33:00,24.0,22.0,30.21,North,-999,-999.0,-999.0,91,-99.99,,,-99.99,,2013-03-12 19:33:00,
2013-03-12 13:43:00,24.0,22.0,30.21,North,-999,-999.0,-999.0,91,-99.99,,,-99.99,,2013-03-12 19:43:00,
2013-03-12 13:53:00,25.0,23.0,30.21,North,-999,-999.0,-999.0,92,-99.99,,,-99.99,,2013-03-12 19:53:00,
2013-03-12 14:02:00,25.0,23.0,30.21,North,-999,-999.0,-999.0,92,-99.99,,,-99.99,,2013-03-12 20:02:00,
2013-03-12 14:12:00,27.0,25.0,30.21,North,-999,-999.0,-999.0,93,-99.99,,,-99.99,,2013-03-12 20:12:00,
2013-03-12 14:22:00,27.0,25.0,30.21,North,-999,-999.0,-999.0,93,-99.99,,,-99.99,,2013-03-12 20:22:00,
2013-03-12 14:32:00,27.0,25.0,30.21,North,-999,-999.0,-999.0,93,-99.99,,,-99.99,,2013-03-12 20:32:00,
2013-03-12 14:42:00,27.0,25.0,30.21,North,-999,-999.0,-999.0,93,-99.99,,,-99.99,,2013-03-12 20:42:00,
2013-03-12 14:52:00,27.0,25.0,30.20,North,-999,-999.0,-999.0,92,-99.99,,,-99.99,,2013-03-12 20:52:00,
2013-03-12 15:02:00,27.0,25.0,30.20,North,-999,-999.0,-999.0,92,-99.99,,,-99.99,,2013-03-12 21:02:00,
2013-03-12 15:12:00,27.0,25.0,30.20,North,-999,-999.0,-999.0,92,-99.99,,,-99.99,,2013-03-12 21:12:00,
2013-03-12 15:22:00,27.0,25.0,30.20,North,-999,-999.0,-999.0,92,-99.99,,,-99.99,,2013-03-12 21:22:00,
2013-03-12 15:33:00,27.0,25.0,30.20,North,-999,-999.0,-999.0,92,-99.99,,,-99.99,,2013-03-12 21:33:00,
2013-03-12 15:43:00,27.0,25.0,30.20,North,-999,-999.0,-999.0,92,-99.99,,,-99.99,,2013-03-12 21:43:00,
2013-03-12 15:52:00,28.0,26.0,30.19,North,-999,-999.0,-999.0,92,-99.99,,,-99.99,,2013-03-12 21:52:00,
2013-03-12 16:02:00,28.0,26.0,30.19,North,-999,-999.0,-999.0,92,-99.99,,,-99.99,,2013-03-12 22:02:00,
2013-03-12 16:12:00,28.0,26.0,30.19,North,-999,-999.0,-999.0,93,-99.99,,,-99.99,,2013-03-12 22:12:00,
2013-03-12 16:22:00,28.0,26.0,30.19,North,-999,-999.0,-999.0,93,-99.99,,,-99.99,,2013-03-12 22:22:00,
2013-03-12 16:32:00,28.0,26.0,30.19,North,-999,-999.0,-999.0,93,-99.99,,,-99.99,,2013-03-12 22:32:00,
2013-03-12 16:42:00,28.0,27.0,30.19,North,-999,-999.0,-999.0,93,-99.99,,,-99.99,,2013-03-12 22:42:00,
2013-03-12 16:52:00,28.0,27.0,30.19,North,-999,-999.0,-999.0,93,-99.99,,,-99.99,,2013-03-12 22:52:00,
2013-03-12 17:02:00,28.0,27.0,30.19,North,-999,-999.0,-999.0,93,-99.99,,,-99.99,,2013-03-12 23:02:00,
2013-03-12 17:12:00,28.0,27.0,30.19,North,-999,-999.0,-999.0,93,-99.99,,,-99.99,,2013-03-12 23:12:00,
2013-03-12 17:22:00,30.0,28.0,30.18,North,-999,-999.0,-999.0,94,-99.99,,,-99.99,,2013-03-12 23:22:00,
2013-03-12 17:34:00,30.0,28.0,30.18,North,-999,-999.0,-999.0,94,-99.99,,,-99.99,,2013-03-12 23:34:00,
2013-03-12 17:43:00,28.0,26.0,30.18,North,-999,-999.0,-999.0,94,-99.99,,,-99.99,,2013-03-12 23:43:00,
2013-03-12 17:52:00,28.0,26.0,30.18,North,-999,-999.0,-999.0,94,-99.99,,,-99.99,,2013-03-12 23:52:00,
2013-03-12 18:02:00,28.0,26.0,30.18,North,-999,-999.0,-999.0,94,-99.99,,,-99.99,,2013-03-13 00:02:00,
2013-03-12 18:12:00,28.0,26.0,30.18,North,-999,-999.0,-999.0,94,-99.99,,,-99.99,,2013-03-13 00:12:00,
2013-03-12 18:23:00,28.0,26.0,30.18,North,-999,-999.0,-999.0,94,-99.99,,,-99.99,,2013-03-13 00:23:00,
2013-03-12 18:53:00,28.0,27.0,30.17,North,-999,-999.0,-999.0,94,-99.99,,,-99.99,,2013-03-13 00:53:00,
2013-03-12 19:03:00,28.0,27.0,30.17,North,-999,-999.0,-999.0,94,-99.99,,,-99.99,,2013-03-13 01:03:00,
2013-03-12 19:12:00,27.0,25.0,30.18,North,-999,-999.0,-999.0,94,-99.99,,,-99.99,,2013-03-13 01:12:00,
2013-03-12 19:22:00,27.0,25.0,30.18,North,-999,-999.0,-999.0,94,-99.99,,,-99.99,,2013-03-13 01:22:00,
2013-03-12 19:32:00,27.0,25.0,30.18,North,-999,-999.0,-999.0,94,-99.99,,,-99.99,,2013-03-13 01:32:00,
2013-03-12 19:42:00,27.0,25.0,30.18,North,-999,-999.0,-999.0,94,-99.99,,,-99.99,,2013-03-13 01:42:00,
2013-03-12 19:52:00,31.0,29.0,30.18,North,-999,-999.0,-999.0,94,-99.99,,,-99.99,,2013-03-13 01:52:00,
2013-03-12 20:02:00,31.0,29.0,30.18,North,-999,-999.0,-999.0,94,-99.99,,,-99.99,,2013-03-13 02:02:00,
2013-03-12 20:12:00,33.0,29.0,30.19,North,-999,-999.0,-999.0,84,-99.99,,,-99.99,,2013-03-13 02:12:00,
2013-03-12 20:22:00,33.0,29.0,30.19,North,-999,-999.0,-999.0,84,-99.99,,,-99.99,,2013-03-13 02:22:00,
2013-03-12 20:32:00,33.0,29.0,30.19,North,-999,-999.0,-999.0,84,-99.99,,,-99.99,,2013-03-13 02:32:00,
2013-03-12 20:43:00,33.0,29.0,30.19,North,-999,-999.0,-999.0,84,-99.99,,,-99.99,,2013-03-13 02:43:00,
2013-03-12 20:52:00,35.0,25.0,30.20,North,-999,-999.0,-999.0,67,-99.99,,,-99.99,,2013-03-13 02:52:00,
2013-03-12 21:02:00,35.0,25.0,30.20,North,-999,-999.0,-999.0,67,-99.99,,,-99.99,,2013-03-13 03:02:00,
2013-03-12 21:12:00,35.0,25.0,30.20,North,-999,-999.0,-999.0,67,-99.99,,,-99.99,,2013-03-13 03:12:00,
2013-03-12 21:22:00,32.0,25.0,30.21,North,-999,-999.0,-999.0,74,-99.99,,,-99.99,,2013-03-13 03:22:00,
2013-03-12 21:32:00,32.0,25.0,30.21,North,-999,-999.0,-999.0,74,-99.99,,,-99.99,,2013-03-13 03:32:00,
2013-03-12 21:42:00,32.0,25.0,30.21,North,-999,-999.0,-999.0,74,-99.99,,,-99.99,,2013-03-13 03:42:00,
2013-03-12 21:52:00,33.0,24.0,30.21,North,-999,-999.0,-999.0,70,-99.99,,,-99.99,,2013-03-13 03:52:00,
2013-03-12 22:02:00,33.0,24.0,30.21,North,-999,-999.0,-999.0,70,-99.99,,,-99.99,,2013-03-13 04:02:00,
2013-03-12 22:13:00,33.0,24.0,30.21,North,-999,-999.0,-999.0,70,-99.99,,,-99.99,,2013-03-13 04:13:00,
2013-03-12 22:22:00,32.0,24.0,30.22,North,-999,-999.0,-999.0,70,-99.99,,,-99.99,,2013-03-13 04:22:00,
2013-03-12 22:32:00,32.0,24.0,30.22,North,-999,-999.0,-999.0,70,-99.99,,,-99.99,,2013-03-13 04:32:00,
2013-03-12 22:43:00,32.0,23.0,30.22,North,-999,-999.0,-999.0,69,-99.99,,,-99.99,,2013-03-13 04:43:00,
2013-03-12 22:53:00,32.0,23.0,30.22,North,-999,-999.0,-999.0,69,-99.99,,,-99.99,,2013-03-13 04:53:00,
2013-03-12 23:02:00,32.0,23.0,30.22,North,-999,-999.0,-999.0,69,-99.99,,,-99.99,,2013-03-13 05:02:00,
2013-03-12 23:12:00,32.0,23.0,30.22,North,-999,-999.0,-999.0,69,-99.99,,,-99.99,,2013-03-13 05:12:00,
2013-03-12 23:22:00,35.0,24.0,30.22,North,-999,-999.0,-999.0,65,-99.99,,,-99.99,,2013-03-13 05:22:00,
2013-03-12 23:32:00,35.0,24.0,30.22,North,-999,-999.0,-999.0,65,-99.99,,,-99.99,,2013-03-13 05:32:00,
2013-03-12 23:42:00,36.0,23.0,30.23,North,-999,-999.0,-999.0,57,-99.99,,,-99.99,,2013-03-13 05:42:00,
2013-03-12 23:52:00,36.0,23.0,30.23,North,-999,-999.0,-999.0,57,-99.99,,,-99.99,,2013-03-13 05:52:00,